This demonstration page uses our WeatherBlox Daily Observations layout. Learn more.

Left ArrowRight Arrow

34.16533, -84.80231

Hourly Observations for August 25, 2020

Temp ( °F °C ) Dew Point ( °F °C ) Humidity (%) Winds ( mph kmh ) Pressure ( in mb ) Visibility ( mi km ) Precip ( " mm )
12:53 am 00:53 Mostly Cloudy 76 24.4 71 21.7 85 85 Calm 30.08 1019 10 16 0.00 0.00
1:35 am 01:35 Cloudy 76 24.4 71 21.7 85 85 Calm 30.09 1019 10 16 0.00 0.00
1:53 am 01:53 Cloudy 76 24.4 71 21.7 85 85 Calm 30.09 1019 10 16 0.00 0.00
2:53 am 02:53 Cloudy 76 24.4 71 21.7 85 85 NNE 3 6 30.07 1018 10 16 0.00 0.00
3:53 am 03:53 Cloudy 75 23.9 71 21.7 88 88 Calm 30.07 1018 10 16 0.00 0.00
4:17 am 04:17 Cloudy 75 23.9 72 22.2 90 90 VRB 3 6 30.07 1018 9 14 0.00 0.00
4:53 am 04:53 Cloudy 76 24.4 72 22.2 88 88 NNE 3 6 30.06 1018 10 16 0.00 0.00
5:24 am 05:24 Cloudy 76 24.4 72 22.2 88 88 Calm 30.08 1019 10 16 0.00 0.00
5:42 am 05:42 Cloudy 76 24.4 72 22.2 88 88 Calm 30.08 1019 10 16 0.00 0.00
5:53 am 05:53 Cloudy 75 23.9 72 22.2 90 90 Calm 30.06 1018 10 16 0.00 0.00
6:13 am 06:13 Cloudy 76 24.4 72 22.2 88 88 Calm 30.08 1019 10 16 0.00 0.00
6:20 am 06:20 Cloudy 76 24.4 72 22.2 88 88 Calm 30.08 1019 10 16 0.00 0.00
6:53 am 06:53 Cloudy 76 24.4 72 22.2 88 88 Calm 30.08 1019 10 16 0.00 0.00
7:36 am 07:36 Cloudy with Light Rain 75 23.9 72 22.2 90 90 E 3 6 30.10 1019 3 4 0.07 1.78
7:53 am 07:53 Cloudy with Rain 75 23.9 72 22.2 90 90 NE 5 7 30.09 1019 3 5 0.10 2.54
8:17 am 08:17 Cloudy 75 23.9 73 22.8 94 94 ENE 5 7 30.09 1019 8 13 0.01 0.25
8:53 am 08:53 Mostly Cloudy with Light Rain 75 23.9 73 22.8 94 94 SE 3 6 30.09 1019 7 11 0.03 0.76
9:53 am 09:53 Cloudy 76 24.4 73 22.8 91 91 Calm 30.11 1020 10 16 0.04 1.02
10:53 am 10:53 Cloudy with Light Rain 77 25 73 22.8 88 88 Calm 30.12 1020 7 11 0.00 0.00
11:02 am 11:02 Cloudy with Light Rain 77 25 73 22.8 88 88 Calm 30.13 1020 6 10 0.01 0.25
11:27 am 11:27 Cloudy with Light Rain 77 25 73 22.8 88 88 Calm 30.14 1021 5 8 0.03 0.76
11:39 am 11:39 Cloudy with Light Rain 76 24.4 73 22.8 91 91 Calm 30.14 1021 3 4 0.07 1.78
11:41 am 11:41 Cloudy with Light Rain 76 24.4 73 22.8 91 91 Calm 30.14 1021 3 5 0.08 2.03
11:46 am 11:46 Cloudy with Heavy Rain 76 24.4 73 22.8 91 91 E 5 7 30.14 1021 2 3 0.15 3.81
11:53 am 11:53 Cloudy with Heavy Rain 75 23.9 73 22.8 94 94 Calm 30.13 1020 1 2 0.22 5.59
12:12 pm 12:12 Cloudy with Heavy Rain 73 22.8 71 21.7 94 94 NE 5 7 30.14 1021 1 1 0.29 7.37
12:20 pm 12:20 Cloudy with Rain 73 22.8 71 21.7 94 94 VRB 5 7 30.14 1021 2 3 0.32 8.13
12:29 pm 12:29 Cloudy with Light Rain 74 23.3 71 21.7 91 91 E 5 7 30.14 1021 5 8 0.33 8.38
12:33 pm 12:33 Cloudy with Light Rain 74 23.3 72 22.2 94 94 E 3 6 30.14 1021 5 8 0.34 8.64
12:53 pm 12:53 Cloudy with Light Rain 74 23.3 72 22.2 94 94 Calm 30.13 1020 6 10 0.37 9.40
1:53 pm 13:53 Cloudy with Rain 75 23.9 72 22.2 90 90 ESE 5 7 30.11 1020 5 8 0.10 2.54
2:43 pm 14:43 Cloudy with Light Rain 75 23.9 72 22.2 90 90 Calm 30.12 1020 6 10 0.11 2.79
2:53 pm 14:53 Cloudy with Light Rain 75 23.9 72 22.2 90 90 SE 5 7 30.11 1020 5 8 0.13 3.30
3:43 pm 15:43 Cloudy 76 24.4 73 22.8 91 91 ESE 6 9 30.09 1019 10 16 0.04 1.02
3:53 pm 15:53 Cloudy with Light Rain 76 24.4 73 22.8 91 91 ESE 6 9 30.08 1019 10 16 0.04 1.02
4:53 pm 16:53 Cloudy with Light Rain 77 25 73 22.8 88 88 ENE 3 6 30.08 1019 8 13 0.02 0.51
5:02 pm 17:02 Cloudy with Light Rain 77 25 73 22.8 88 88 Calm 30.09 1019 8 13 0.00 0.00
5:14 pm 17:14 Cloudy with Light Rain 77 25 74 23.3 90 90 Calm 30.09 1019 10 16 0.01 0.25
5:37 pm 17:37 Cloudy with Light Rain 77 25 74 23.3 90 90 ENE 3 6 30.09 1019 10 16 0.01 0.25
5:44 pm 17:44 Cloudy 77 25 74 23.3 90 90 Calm 30.09 1019 10 16 0.01 0.25
5:53 pm 17:53 Cloudy 77 25 74 23.3 90 90 ESE 3 6 30.09 1019 10 16 0.01 0.25
6:53 pm 18:53 Partly Cloudy 77 25 74 23.3 90 90 Calm 30.07 1018 10 16 0.00 0.00
7:53 pm 19:53 Mostly Sunny 77 25 73 22.8 88 88 NE 3 6 30.05 1018 10 16 0.00 0.00
8:15 pm 20:15 Mostly Cloudy 76 24.4 73 22.8 91 91 Calm 30.06 1018 10 16 0.00 0.00
8:53 pm 20:53 Cloudy 76 24.4 73 22.8 91 91 Calm 30.06 1018 10 16 0.00 0.00
9:53 pm 21:53 Cloudy 76 24.4 73 22.8 91 91 Calm 30.06 1018 8 13 0.00 0.00
10:10 pm 22:10 Cloudy 76 24.4 73 22.8 91 91 ENE 3 6 30.07 1018 9 14 0.00 0.00
10:53 pm 22:53 Mostly Cloudy 76 24.4 73 22.8 91 91 Calm 30.08 1019 9 14 0.00 0.00
11:00 pm 23:00 Partly Cloudy 76 24.4 73 22.8 91 91 Calm 30.09 1019 8 13 0.00 0.00
11:53 pm 23:53 Cloudy 75 23.9 73 22.8 94 94 Calm 30.09 1019 7 11 0.00 0.00

Powered by AerisWeather